Vorticity
5 4 4 4 4 4 4 4 5 5 5 5 5 4 5 5 5 5 5 5 7 8 8 9 10 10 10 10 9 9 9 10 10 10 11 11 10 9 8 7 7 7 7 7 7 8 9 9 9 7 6 6 6 6 5 5 4 4 4 4 4 4 5 7 8 8 12 15 14 14 13 11 11 10 9 8 7 6 7 9 11 12 12 11 7
4 4 4 4 4 4 4 5 5 5 5 5 5 5 5 4 4 5 6 6 8 9 10 10 10 10 10 9 9 9 9 11 12 11 11 11 10 10 9 8 7 7 7 8 9 9 9 8 8 6 5 6 6 5 5 4 4 4 4 4 4 5 6 7 9 11 15 16 14 13 13 11 9 9 8 7 6 7 8 9 10 10 11 11 9
4 3 3 3 3 3 4 4 4 4 4 4 4 4 4 4 5 6 7 8 9 10 10 10 10 9 9 8 8 9 10 11 12 12 11 10 10 10 8 7 6 7 9 9 9 8 8 7 6 5 5 6 6 5 5 5 5 5 6 6 6 7 9 11 14 16 16 14 13 12 10 8 7 7 8 7 7 8 9 9 9 8 9 10 10
3 3 2 2 2 2 3 3 3 3 3 4 3 3 4 5 6 8 8 9 9 10 10 9 9 9 8 8 9 11 13 13 13 12 10 8 8 8 7 7 8 9 9 9 9 8 8 6 6 6 6 6 6 5 5 5 7 7 8 10 11 13 16 18 17 16 12 11 11 9 7 7 7 7 8 8 8 8 8 9 9 8 9 11 13
3 3 2 2 2 3 3 3 4 4 3 3 3 4 6 7 8 9 9 10 10 10 9 9 9 9 8 10 12 14 14 13 12 10 8 7 7 6 7 7 8 9 9 9 8 7 6 6 6 7 6 6 6 7 8 9 10 12 13 15 17 18 19 17 13 10 8 8 8 7 7 8 8 7 8 8 7 7 9 10 11 12 12 13 15
2 2 2 3 3 4 4 4 4 4 4 4 4 5 7 7 8 9 9 10 9 9 10 10 10 10 10 12 14 14 13 12 11 10 8 8 8 7 8 7 7 7 7 6 5 5 6 7 7 7 7 9 9 10 12 13 14 16 18 18 17 15 12 9 7 7 6 7 8 8 8 8 7 8 8 8 9 10 13 14 14 15 16 16 17
1 2 1 2 3 4 5 5 4 4 4 4 5 6 7 8 9 9 9 9 9 9 10 10 10 10 11 14 15 14 13 12 10 10 10 10 10 10 9 8 7 7 6 6 7 7 9 9 9 11 11 12 14 15 17 18 18 17 16 13 10 8 7 7 7 7 7 7 7 8 8 8 10 12 12 13 14 15 15 17 18 17 17 18 19
2 2 1 2 4 5 5 4 4 4 3 4 6 7 8 9 9 10 9 9 9 10 10 10 11 12 13 14 14 13 12 12 12 13 14 13 13 12 11 9 8 8 8 9 10 11 12 14 15 17 19 19 20 20 18 16 14 11 9 8 8 7 8 7 7 7 7 8 9 10 11 13 15 16 16 16 17 17 17 19 19 19 19 21 21
3 2 3 4 5 5 5 4 3 3 4 6 7 8 9 10 9 9 8 8 10 10 11 10 11 12 12 11 11 11 13 14 14 15 14 11 11 10 10 9 8 9 11 12 14 16 17 19 20 19 19 17 15 13 11 9 8 8 8 8 8 8 7 7 8 10 11 12 14 15 16 18 19 19 18 19 19 19 19 20 20 21 22 24 25
3 3 4 5 5 4 3 3 3 4 6 7 9 9 9 8 7 6 7 8 9 8 9 9 11 12 13 13 14 14 15 15 13 12 10 8 9 10 10 9 11 14 16 17 18 18 17 15 14 12 11 9 8 8 7 7 7 7 7 8 8 9 10 12 14 15 16 17 18 19 22 23 23 21 20 20 21 21 21 22 23 24 25 26 26
3 3 4 4 4 3 3 4 5 7 8 8 8 8 7 5 5 6 7 7 8 10 12 15 16 16 17 17 17 16 15 13 12 11 9 8 11 13 12 13 16 17 16 15 13 11 10 9 8 8 8 7 6 6 6 7 9 10 11 13 14 14 16 18 19 20 21 23 24 27 28 27 24 23 22 23 23 24 24 25 26 26 28 29 29
3 3 4 4 4 3 4 5 6 6 6 6 6 5 4 5 6 8 9 10 13 15 17 17 16 15 16 16 16 16 14 13 13 13 12 13 15 15 14 15 15 13 11 10 9 8 8 8 7 6 6 6 7 9 11 13 14 15 16 18 19 21 24 25 26 27 28 30 32 31 29 27 25 25 26 26 27 27 28 28 29 30 30 31 31
4 5 5 5 4 4 4 4 4 5 6 6 6 6 7 9 10 10 12 14 16 16 15 14 14 15 17 17 17 17 15 15 15 14 13 14 14 12 13 13 11 10 10 9 8 8 7 7 8 9 11 13 14 15 16 16 17 19 22 24 27 30 31 30 31 32 32 31 30 28 27 26 26 27 28 28 29 29 30 30 30 30 29 27 25
6 7 7 6 5 4 4 5 5 7 8 7 8 9 10 10 10 11 13 15 14 13 13 15 17 18 19 18 16 14 12 11 11 11 11 13 12 11 12 12 10 9 8 7 7 9 10 12 14 15 16 18 18 19 20 22 26 29 30 32 35 34 31 29 28 29 28 26 25 25 25 26 26 27 28 28 29 29 29 30 28 25 23 20 18
8 8 7 5 5 4 5 6 7 7 8 8 10 11 10 9 10 12 14 14 13 14 17 19 20 17 14 13 12 10 10 12 12 12 13 12 11 10 10 9 9 10 11 13 16 17 19 20 20 21 22 24 26 29 32 34 35 35 33 33 32 29 26 24 25 25 24 24 25 25 24 25 25 27 27 27 29 29 27 25 21 18 16 15 15
7 7 7 5 5 6 6 7 7 7 8 10 11 9 9 10 12 13 14 15 17 19 19 17 15 12 12 13 14 14 14 14 13 12 11 11 11 13 14 15 18 20 21 22 22 22 23 24 25 29 31 34 35 35 35 34 32 30 28 27 26 25 23 23 24 25 25 25 26 25 25 24 24 25 25 25 26 25 21 18 15 13 13 13 15
6 6 6 6 6 6 6 7 7 8 10 10 9 9 11 13 13 13 16 19 18 18 15 14 14 16 17 17 17 16 15 15 15 16 17 19 20 21 23 23 23 23 22 22 22 24 27 29 32 34 34 33 32 29 27 26 25 24 24 26 27 26 25 26 26 26 26 26 24 23 23 22 22 22 23 25 25 21 17 16 15 14 13 13 16
6 6 6 6 6 6 6 7 9 10 11 9 9 11 13 13 13 16 20 20 18 17 17 18 20 20 19 19 18 18 19 19 21 22 22 23 24 22 22 21 20 20 21 23 26 29 31 32 32 31 28 25 23 22 21 21 23 25 27 28 28 26 25 26 25 24 24 23 22 21 21 21 22 21 22 24 22 18 16 17 17 16 16 15 14
6 6 6 6 6 6 7 10 11 10 9 9 11 13 14 16 20 23 23 21 20 20 20 20 19 18 19 19 19 20 22 21 22 23 23 23 22 20 20 19 20 22 24 27 30 31 30 29 26 23 21 19 19 20 22 24 26 28 28 27 25 23 22 21 20 20 21 21 22 22 21 21 21 20 21 22 20 17 16 18 19 19 18 16 14
6 6 6 6 6 9 11 12 10 8 9 11 15 18 22 25 25 23 21 19 19 19 18 18 19 19 20 21 22 23 24 23 24 23 22 20 19 18 19 20 22 26 29 30 29 26 23 20 18 18 18 19 22 23 25 27 27 26 24 23 21 19 19 19 19 20 21 22 22 22 21 21 20 18 18 19 19 18 17 18 20 21 20 18 15
6 6 6 7 10 12 11 8 7 10 15 18 22 25 26 24 20 18 18 18 19 19 19 20 21 22 23 24 24 24 24 23 23 21 19 18 17 17 20 23 27 30 28 25 21 17 15 15 16 18 21 23 26 27 26 25 22 20 19 19 19 18 19 20 20 21 22 22 22 21 20 20 19 18 17 17 18 18 18 18 19 19 19 19 16
5 6 8 10 11 9 7 8 13 18 22 25 26 24 20 18 17 18 18 20 20 20 21 23 24 24 25 25 23 23 23 22 20 17 15 15 16 19 25 28 29 25 20 17 14 13 13 15 18 21 24 25 26 25 22 18 15 16 17 18 19 20 21 21 21 22 22 22 22 21 21 20 19 18 17 16 17 18 18 18 18 18 18 18 17
6 8 10 10 8 7 11 16 21 24 24 24 22 18 17 18 19 20 21 22 23 23 24 25 25 24 24 24 23 23 21 18 15 13 11 14 20 27 29 26 21 16 13 12 11 12 15 19 23 25 26 27 26 20 15 13 14 17 19 20 20 23 23 22 20 19 20 22 23 23 22 21 20 18 17 16 17 18 18 18 19 18 17 17 17
9 10 9 8 10 14 19 22 24 24 23 20 18 18 19 21 21 22 23 24 24 25 25 25 25 24 24 23 23 20 17 14 11 8 11 20 27 28 22 16 12 11 11 11 13 17 21 24 26 26 26 27 24 16 12 13 16 19 20 19 21 23 22 18 16 15 17 19 21 23 24 24 22 19 17 16 16 17 17 17 18 18 17 16 16
10 8 9 13 17 21 23 23 23 22 20 19 20 21 22 23 24 25 25 25 25 25 25 24 24 23 22 21 18 15 14 11 6 8 18 28 27 19 13 11 10 10 12 15 20 24 26 26 26 25 24 26 23 16 12 14 17 20 20 19 19 20 18 14 12 12 12 13 16 20 25 29 28 24 19 16 16 16 17 16 16 17 18 17 15
9 11 15 20 22 23 23 23 22 21 21 21 22 22 23 25 26 25 25 25 25 24 24 24 23 22 20 17 14 14 11 6 5 17 28 26 16 10 10 10 11 14 19 24 27 27 25 24 23 21 20 23 21 14 12 16 18 18 18 17 17 16 14 13 12 11 10 10 11 13 19 27 32 32 26 20 17 16 16 16 15 16 17 17 16
13 17 20 22 23 23 23 22 22 22 23 23 22 23 25 26 26 25 25 25 25 25 24 22 21 20 17 14 14 13 7 6 15 27 26 14 9 10 12 12 16 23 27 28 27 24 22 20 21 19 18 21 21 15 13 17 18 17 15 15 15 14 13 13 12 11 11 11 10 9 11 16 26 33 32 26 21 18 16 15 15 15 15 15 15
19 21 22 23 23 23 23 23 23 23 23 23 24 25 26 27 27 27 26 25 24 24 22 20 19 17 14 13 13 8 6 15 27 25 14 9 12 13 13 17 25 30 29 25 21 19 20 20 21 20 20 23 23 16 14 18 18 15 14 14 14 14 14 13 13 12 12 12 12 11 9 9 15 25 32 32 27 22 19 17 15 15 14 14 14
21 22 23 24 24 25 25 24 23 23 23 24 26 27 27 27 28 27 26 25 24 21 20 19 16 14 13 11 6 5 14 26 25 15 10 13 15 13 15 24 31 29 24 19 17 18 20 20 19 18 19 23 22 15 14 18 18 14 12 13 14 15 14 13 13 13 12 12 12 12 12 10 10 14 24 32 32 27 22 20 19 17 15 14 14
23 23 25 26 26 26 25 24 24 24 25 26 26 27 28 27 27 26 25 24 22 21 19 16 13 12 11 7 6 15 27 26 15 9 12 15 13 13 20 27 29 24 18 15 15 16 17 16 16 16 18 21 20 14 13 17 17 14 12 13 14 15 14 13 13 12 12 13 13 12 13 12 11 9 13 23 31 31 26 21 20 19 17 16 15
24 25 27 27 26 25 24 25 25 25 26 26 26 26 26 27 26 25 24 22 21 19 15 12 12 10 7 7 16 27 26 15 8 10 14 14 13 16 22 26 25 20 15 13 13 13 13 14 15 16 19 22 19 14 14 17 16 13 12 13 14 14 14 13 12 12 12 12 13 13 13 13 13 11 10 13 21 29 30 26 22 19 19 18 16
26 27 28 27 26 25 25 25 25 25 25 25 25 25 25 25 24 24 23 21 18 15 12 11 10 7 8 17 26 25 14 7 9 13 14 14 15 16 19 23 23 19 17 17 17 16 17 18 18 18 20 22 19 14 14 16 15 13 12 13 14 14 13 13 12 12 13 13 13 14 14 13 13 13 11 11 13 20 28 31 27 22 20 19 18
29 29 28 27 26 25 25 24 23 23 24 24 25 25 26 24 22 21 20 18 15 12 11 9 7 9 17 26 25 15 7 7 11 13 14 16 15 15 17 20 20 21 22 24 24 25 24 23 22 21 22 22 18 15 15 16 15 13 13 13 14 13 13 13 12 12 13 13 13 14 14 14 13 13 13 13 11 12 18 26 30 28 24 20 18
31 29 28 26 24 23 22 21 20 22 24 24 24 25 25 23 20 18 16 14 13 11 9 8 10 17 25 24 16 9 7 8 11 14 16 17 16 14 14 16 18 21 23 24 25 26 25 23 22 22 22 22 18 14 14 16 15 14 13 13 14 13 13 12 12 13 12 12 13 14 14 14 14 13 13 14 14 12 13 17 23 28 28 26 22
30 28 25 23 21 19 18 19 20 23 24 24 24 25 24 21 18 16 14 11 10 9 8 10 17 23 23 16 10 8 7 8 11 15 16 17 17 15 13 14 17 19 20 22 22 23 23 22 22 21 22 21 17 15 15 15 14 14 14 13 13 13 13 12 12 11 12 12 13 14 14 14 14 15 14 14 14 14 13 13 15 20 25 28 27
27 24 22 19 17 16 18 19 22 24 25 25 24 23 21 18 17 16 14 12 10 9 11 17 22 22 17 12 10 9 7 8 13 16 16 18 19 16 14 15 16 17 19 21 21 22 22 21 21 21 21 19 16 15 15 14 14 14 13 13 13 13 12 12 11 11 12 13 14 14 15 15 15 14 15 15 15 15 14 13 12 13 16 21 25
22 20 18 16 16 17 19 21 23 26 26 24 22 20 18 17 16 15 14 14 13 14 18 21 19 15 13 11 8 6 6 10 15 18 21 23 22 18 17 17 17 18 20 20 20 20 20 20 20 21 21 19 17 15 14 14 14 14 13 13 13 12 11 11 11 12 13 14 15 15 15 15 15 15 15 15 15 15 14 13 13 12 13 14 16
19 17 16 15 16 18 20 23 25 26 25 23 21 19 17 16 17 17 17 17 18 19 20 18 14 12 12 9 4 5 10 17 22 25 26 26 23 21 21 21 20 20 20 20 19 19 18 18 19 19 19 18 17 16 15 15 15 14 14 14 13 13 12 12 12 13 14 15 16 16 15 15 15 15 15 15 15 15 15 14 14 14 15 16 18
17 16 15 15 16 19 22 25 25 25 24 23 21 18 18 19 20 20 18 18 19 19 18 16 14 12 9 5 6 14 22 26 28 29 29 27 25 25 24 23 23 22 21 20 19 19 18 18 19 18 19 18 17 16 17 17 16 15 15 14 14 14 14 13 14 15 16 16 16 16 15 15 15 14 15 15 15 15 16 17 19 21 23 23 23
16 15 14 15 18 21 24 26 25 25 24 22 19 19 20 20 19 17 16 15 16 18 19 17 13 8 6 10 19 28 32 32 32 31 30 27 25 24 22 22 21 20 20 19 18 17 18 18 18 18 18 18 18 18 18 18 19 19 18 17 17 16 15 16 16 17 17 17 17 15 15 15 15 15 15 16 17 19 21 23 23 22 19 16 15
16 15 13 16 20 24 26 26 25 24 23 21 19 18 17 15 14 12 12 15 19 22 19 12 7 8 16 27 33 34 33 32 30 27 24 21 20 19 18 18 17 16 16 15 15 15 15 15 16 16 16 16 16 17 18 18 19 20 20 20 20 19 19 19 18 18 17 17 16 15 15 16 16 17 18 21 22 23 21 17 14 13 12 13 15
15 13 14 19 25 28 27 25 23 22 22 20 16 13 12 12 10 10 14 21 24 19 10 7 12 22 30 32 31 28 27 25 23 20 18 17 16 15 13 13 13 13 13 13 13 13 13 13 13 14 15 15 16 17 19 20 20 19 20 22 23 23 22 20 18 18 18 17 16 16 17 18 20 21 22 21 19 15 12 12 14 16 17 17 16
14 13 18 25 29 28 25 23 22 22 22 19 15 13 12 10 9 16 24 25 17 9 8 16 26 30 29 25 23 23 21 19 16 15 14 12 11 11 11 12 12 12 13 13 14 14 15 17 18 19 20 21 22 22 23 22 21 20 21 23 24 23 22 20 19 18 17 17 19 20 22 22 21 19 15 13 12 13 15 17 17 15 13 10 9
14 18 24 29 30 27 24 22 21 22 22 20 18 14 12 13 19 26 25 16 8 10 20 28 28 24 21 20 19 17 14 13 12 11 11 11 12 12 13 13 14 15 15 16 18 20 22 24 25 25 25 25 25 24 23 21 21 22 23 23 23 22 20 19 19 20 20 22 23 22 19 16 13 11 11 13 15 16 15 13 9 7 6 4 3
19 25 30 30 27 25 23 21 22 23 24 22 19 17 19 23 27 22 13 10 15 24 27 25 22 19 18 16 13 11 10 10 10 11 12 14 15 15 16 16 17 18 19 21 23 24 26 26 25 24 24 23 22 21 21 21 22 23 23 22 21 21 21 21 22 23 22 20 17 13 11 10 12 14 16 16 14 11 8 5 4 3 2 2 2
26 30 30 27 24 24 24 24 26 26 26 24 24 25 25 23 17 13 13 20 25 26 22 19 17 15 13 10 10 10 11 12 13 15 17 17 17 18 18 19 20 21 22 24 26 25 24 23 22 21 21 20 20 21 22 23 23 23 23 23 22 22 22 21 19 17 14 12 11 12 14 16 17 16 13 9 6 4 3 2 3 3 4 7 9
30 30 26 23 23 24 26 28 29 29 28 27 25 22 18 14 13 18 23 25 23 19 18 16 12 10 10 11 13 14 15 17 18 19 18 19 20 20 21 22 24 25 26 26 24 23 22 22 23 23 23 24 24 24 24 23 22 21 21 20 19 17 15 14 13 13 14 15 16 16 15 13 10 7 5 4 3 3 4 4 5 7 10 11 9
30 27 22 21 21 23 25 28 29 27 24 21 17 14 14 17 21 24 23 20 17 16 13 11 10 11 14 15 17 18 19 20 21 21 21 23 24 25 25 26 26 25 25 24 23 24 25 25 24 23 22 20 18 16 15 15 15 15 15 15 14 15 15 16 17 17 17 16 14 11 8 7 6 4 4 5 5 5 7 8 9 9 8 6 4
27 24 22 22 23 25 26 26 23 20 17 15 15 18 21 23 23 21 18 16 14 12 11 12 15 18 18 19 20 21 22 22 24 25 26 26 27 27 27 27 27 27 28 27 26 24 22 19 16 14 12 11 11 12 13 15 15 16 16 17 18 19 18 17 15 13 10 8 7 5 4 4 4 5 5 7 8 10 11 11 11 10 8 7 7
26 24 24 25 24 24 23 20 17 17 17 18 21 23 23 21 19 16 14 13 13 14 16 19 20 20 22 23 25 26 28 30 32 32 32 32 31 31 30 29 29 27 24 20 17 15 12 11 11 12 12 14 16 17 18 19 19 18 18 17 15 13 10 8 7 6 5 4 4 4 5 6 7 9 11 12 12 12 12 10 9 8 8 7 8
25 23 22 22 20 19 18 18 18 20 22 23 23 22 19 16 15 14 14 15 18 20 22 23 25 27 30 32 33 34 35 35 33 31 29 27 25 23 21 19 17 15 13 12 11 12 12 13 15 16 16 17 19 18 18 17 15 13 11 9 6 5 5 4 4 4 4 5 6 7 8 10 10 10 9 9 7 6 5 5 4 5 5 6 6
Height
5653 5649 5644 5639 5634 5629 5625 5619 5614 5608 5603 5598 5592 5587 5582 5576 5571 5565 5559 5554 5548 5543 5537 5532 5526 5521 5516 5510 5504 5499 5493 5488 5482 5477 5472 5467 5462 5457 5452 5446 5442 5437 5433 5428 5423 5418 5415 5411 5406 5402 5397 5394 5391 5386 5383 5379 5375 5372 5368 5365 5362 5358 5354 5351 5353 5360 5363 5355 5349 5347 5345 5342 5340 5338 5337 5336 5335 5334 5333 5332 5332 5331 5330 5327 5324
5647 5642 5637 5632 5627 5622 5616 5611 5605 5600 5594 5589 5583 5578 5572 5567 5561 5556 5550 5544 5538 5533 5527 5521 5516 5510 5505 5499 5493 5487 5482 5476 5471 5465 5460 5455 5450 5445 5440 5435 5430 5426 5421 5417 5412 5407 5403 5398 5394 5389 5385 5382 5378 5374 5371 5367 5363 5360 5357 5352 5350 5347 5342 5338 5338 5342 5347 5344 5336 5333 5331 5329 5327 5324 5322 5322 5321 5319 5319 5318 5317 5317 5317 5316 5313
5640 5635 5630 5625 5620 5614 5608 5603 5597 5591 5586 5580 5574 5569 5563 5558 5552 5546 5540 5534 5528 5522 5516 5511 5505 5499 5493 5488 5482 5476 5470 5465 5459 5454 5448 5443 5439 5433 5428 5423 5419 5414 5409 5405 5400 5395 5390 5386 5381 5377 5373 5369 5366 5361 5357 5354 5350 5348 5345 5340 5337 5335 5330 5326 5324 5325 5330 5331 5325 5319 5317 5316 5314 5311 5309 5308 5306 5305 5304 5304 5302 5302 5302 5302 5301
5633 5628 5623 5617 5612 5606 5600 5594 5588 5583 5577 5571 5565 5560 5554 5548 5542 5536 5530 5524 5518 5511 5506 5500 5494 5488 5482 5476 5471 5465 5459 5453 5448 5442 5437 5431 5427 5422 5417 5412 5407 5402 5397 5392 5387 5382 5378 5373 5369 5364 5360 5357 5353 5348 5344 5341 5338 5334 5332 5328 5324 5321 5317 5313 5312 5311 5313 5317 5314 5306 5303 5303 5301 5298 5295 5294 5292 5290 5290 5289 5288 5287 5287 5287 5287
5626 5621 5615 5609 5603 5597 5591 5586 5580 5574 5568 5562 5556 5550 5544 5538 5532 5526 5520 5513 5507 5501 5495 5489 5483 5477 5471 5465 5459 5453 5447 5442 5436 5430 5425 5419 5414 5410 5405 5400 5395 5390 5385 5380 5374 5369 5365 5361 5356 5352 5348 5344 5340 5336 5332 5328 5325 5322 5319 5315 5311 5308 5305 5301 5299 5297 5297 5300 5300 5294 5290 5288 5287 5284 5281 5279 5279 5277 5275 5274 5272 5272 5272 5272 5272
5618 5612 5607 5601 5595 5589 5583 5577 5571 5565 5559 5553 5547 5540 5534 5527 5521 5514 5508 5502 5496 5489 5483 5477 5471 5465 5459 5453 5447 5441 5435 5430 5424 5418 5413 5407 5402 5398 5392 5387 5383 5377 5372 5366 5361 5356 5352 5348 5344 5339 5334 5331 5327 5323 5319 5315 5312 5309 5306 5303 5299 5295 5293 5290 5286 5284 5282 5283 5283 5281 5277 5273 5272 5270 5267 5264 5264 5263 5261 5259 5258 5257 5257 5258 5258
5610 5604 5598 5592 5587 5581 5574 5568 5562 5555 5549 5543 5536 5529 5523 5516 5509 5502 5496 5490 5484 5478 5472 5466 5459 5453 5447 5441 5435 5429 5423 5417 5412 5406 5401 5395 5390 5385 5380 5375 5370 5364 5358 5353 5348 5343 5339 5334 5330 5325 5321 5317 5313 5309 5306 5302 5299 5296 5293 5290 5286 5283 5280 5277 5274 5271 5269 5267 5266 5265 5262 5258 5256 5254 5251 5248 5248 5248 5247 5246 5244 5243 5243 5244 5244
5602 5596 5590 5584 5578 5572 5565 5559 5552 5545 5538 5531 5524 5517 5510 5504 5497 5491 5484 5478 5472 5466 5460 5454 5448 5442 5435 5429 5423 5417 5411 5405 5399 5393 5387 5382 5377 5373 5367 5362 5356 5350 5345 5340 5335 5330 5325 5320 5316 5311 5307 5303 5299 5295 5292 5289 5286 5283 5280 5276 5273 5270 5267 5263 5260 5257 5254 5252 5251 5249 5246 5243 5240 5237 5235 5233 5232 5231 5231 5231 5231 5230 5230 5231 5231
5594 5588 5582 5576 5569 5562 5555 5548 5541 5534 5527 5519 5512 5505 5499 5492 5486 5479 5473 5467 5461 5455 5449 5443 5437 5430 5424 5418 5411 5405 5398 5392 5386 5380 5373 5368 5364 5360 5353 5347 5342 5337 5332 5327 5322 5316 5312 5307 5302 5298 5293 5289 5285 5282 5278 5274 5272 5269 5266 5263 5259 5255 5252 5249 5245 5242 5239 5237 5236 5233 5230 5227 5224 5221 5219 5218 5218 5217 5216 5216 5217 5218 5218 5219 5219
5585 5579 5573 5566 5559 5552 5545 5537 5530 5522 5515 5508 5501 5494 5488 5481 5475 5469 5463 5456 5450 5444 5437 5430 5424 5418 5411 5404 5397 5390 5384 5377 5371 5365 5358 5354 5352 5346 5338 5333 5328 5323 5319 5314 5309 5303 5298 5294 5290 5285 5281 5276 5272 5268 5264 5261 5257 5254 5251 5248 5243 5239 5236 5233 5229 5226 5223 5221 5220 5216 5214 5212 5209 5205 5205 5204 5204 5204 5203 5204 5204 5205 5207 5208 5209
5576 5570 5563 5556 5549 5541 5534 5526 5519 5511 5504 5497 5490 5484 5477 5470 5464 5457 5451 5444 5437 5430 5423 5416 5409 5403 5396 5389 5383 5376 5370 5363 5358 5351 5343 5341 5339 5331 5324 5320 5315 5309 5304 5300 5295 5290 5285 5281 5276 5271 5267 5263 5259 5255 5251 5247 5243 5239 5235 5231 5226 5222 5220 5217 5213 5209 5206 5205 5204 5200 5198 5196 5193 5191 5190 5190 5190 5191 5192 5192 5193 5194 5196 5198 5199
5567 5560 5553 5545 5538 5531 5524 5516 5509 5502 5494 5487 5479 5472 5465 5458 5451 5444 5437 5430 5422 5415 5408 5402 5395 5389 5382 5376 5369 5363 5357 5351 5345 5337 5330 5328 5324 5316 5310 5307 5302 5295 5291 5286 5281 5277 5272 5268 5263 5257 5253 5248 5244 5240 5237 5232 5228 5223 5219 5215 5210 5206 5202 5199 5196 5194 5191 5190 5188 5186 5183 5181 5180 5178 5177 5178 5178 5180 5181 5182 5183 5185 5186 5188 5190
5557 5550 5543 5535 5528 5521 5513 5506 5498 5490 5482 5475 5467 5460 5452 5445 5438 5431 5424 5416 5409 5402 5395 5389 5382 5376 5369 5362 5355 5349 5343 5338 5332 5324 5318 5315 5309 5301 5298 5294 5287 5281 5276 5271 5267 5262 5258 5254 5249 5243 5237 5232 5228 5225 5221 5217 5212 5208 5203 5198 5194 5190 5185 5182 5180 5179 5178 5176 5175 5172 5169 5167 5168 5167 5166 5167 5168 5169 5171 5172 5174 5176 5178 5180 5182
5547 5539 5532 5525 5517 5509 5502 5493 5485 5477 5469 5461 5454 5447 5440 5433 5425 5418 5411 5403 5395 5389 5382 5375 5368 5361 5355 5349 5342 5335 5330 5325 5319 5311 5306 5302 5294 5288 5285 5279 5273 5267 5262 5257 5252 5247 5242 5238 5233 5228 5222 5217 5212 5208 5204 5200 5197 5192 5188 5184 5180 5175 5171 5168 5167 5166 5165 5164 5163 5161 5158 5156 5157 5157 5156 5157 5159 5160 5162 5164 5165 5168 5170 5172 5175
5536 5529 5521 5513 5505 5497 5489 5481 5472 5464 5457 5449 5442 5435 5428 5421 5412 5405 5397 5389 5381 5374 5367 5361 5353 5346 5341 5336 5329 5321 5316 5311 5305 5298 5293 5288 5281 5275 5271 5265 5259 5253 5247 5242 5237 5232 5227 5222 5217 5212 5207 5202 5197 5193 5189 5186 5183 5179 5175 5172 5169 5164 5159 5157 5157 5156 5154 5152 5151 5151 5149 5147 5147 5148 5148 5149 5151 5152 5154 5156 5158 5160 5163 5165 5168
5525 5518 5510 5502 5494 5485 5477 5468 5460 5452 5444 5437 5430 5422 5415 5407 5398 5390 5382 5374 5366 5358 5352 5346 5340 5333 5327 5322 5315 5307 5301 5296 5290 5284 5279 5274 5268 5262 5257 5251 5244 5239 5233 5228 5222 5217 5212 5208 5203 5198 5193 5188 5184 5180 5176 5174 5171 5167 5164 5161 5158 5154 5150 5148 5147 5146 5144 5143 5142 5141 5141 5140 5140 5140 5141 5142 5144 5145 5147 5149 5151 5154 5157 5160 5162
5514 5506 5498 5489 5481 5473 5464 5456 5448 5440 5433 5425 5417 5409 5400 5392 5384 5376 5367 5358 5350 5344 5337 5331 5326 5319 5312 5307 5300 5293 5288 5283 5277 5271 5266 5261 5255 5248 5243 5237 5231 5225 5219 5214 5209 5203 5199 5194 5190 5186 5181 5176 5172 5168 5165 5163 5160 5157 5154 5152 5149 5145 5142 5140 5139 5137 5136 5135 5135 5134 5133 5133 5133 5133 5134 5135 5137 5138 5140 5143 5145 5148 5151 5154 5156
5502 5494 5485 5477 5469 5460 5452 5444 5436 5428 5420 5412 5403 5394 5385 5377 5369 5361 5353 5344 5336 5330 5323 5316 5310 5305 5298 5292 5287 5280 5274 5269 5264 5257 5252 5247 5241 5235 5230 5224 5218 5213 5207 5201 5196 5191 5186 5182 5179 5175 5171 5166 5162 5159 5156 5153 5151 5148 5146 5144 5140 5137 5135 5133 5131 5130 5129 5129 5128 5127 5127 5127 5128 5128 5129 5130 5131 5133 5134 5137 5140 5143 5146 5149 5152
5490 5482 5473 5465 5456 5448 5439 5431 5423 5415 5407 5398 5390 5381 5371 5362 5353 5346 5338 5331 5323 5315 5308 5302 5296 5290 5284 5279 5274 5267 5261 5255 5251 5245 5239 5234 5229 5223 5218 5213 5207 5202 5197 5191 5186 5180 5176 5172 5169 5165 5162 5158 5154 5150 5147 5144 5142 5140 5138 5137 5134 5131 5129 5127 5125 5124 5123 5123 5123 5122 5122 5122 5122 5123 5124 5125 5126 5128 5130 5133 5135 5138 5141 5144 5147
5478 5469 5461 5452 5444 5435 5427 5419 5411 5402 5393 5384 5375 5366 5356 5347 5338 5331 5324 5316 5309 5301 5294 5288 5282 5277 5272 5266 5260 5255 5249 5243 5238 5233 5228 5223 5218 5212 5207 5203 5197 5192 5187 5182 5178 5172 5168 5164 5160 5157 5153 5150 5146 5143 5140 5137 5135 5133 5132 5131 5128 5126 5124 5122 5120 5119 5118 5118 5118 5117 5117 5117 5117 5118 5119 5121 5122 5124 5126 5129 5132 5134 5137 5140 5143
5466 5457 5448 5439 5431 5423 5415 5407 5398 5388 5379 5369 5359 5350 5342 5333 5325 5317 5310 5302 5294 5287 5281 5275 5269 5265 5260 5254 5248 5243 5238 5232 5227 5222 5217 5212 5207 5202 5197 5192 5188 5183 5178 5174 5170 5166 5162 5157 5153 5150 5146 5142 5139 5136 5134 5132 5130 5128 5127 5125 5123 5121 5120 5118 5116 5115 5114 5114 5113 5113 5113 5113 5113 5114 5116 5117 5119 5121 5123 5126 5128 5131 5133 5136 5139
5453 5444 5435 5427 5419 5411 5402 5393 5384 5373 5363 5353 5344 5335 5327 5320 5312 5303 5296 5289 5282 5275 5269 5262 5257 5252 5247 5242 5237 5232 5227 5223 5218 5213 5208 5203 5198 5193 5188 5183 5179 5175 5171 5167 5163 5159 5155 5151 5147 5143 5140 5136 5133 5131 5129 5127 5125 5124 5123 5121 5119 5118 5116 5114 5113 5112 5111 5110 5109 5109 5109 5109 5110 5111 5113 5114 5116 5118 5120 5123 5125 5127 5130 5133 5136
5440 5431 5423 5414 5406 5398 5389 5379 5369 5358 5348 5339 5330 5322 5314 5306 5298 5290 5283 5276 5270 5264 5258 5251 5245 5240 5236 5231 5227 5222 5218 5214 5209 5204 5200 5195 5189 5184 5180 5175 5171 5168 5164 5160 5156 5152 5148 5144 5141 5137 5134 5131 5129 5127 5125 5123 5122 5120 5119 5117 5116 5115 5113 5112 5111 5110 5109 5108 5107 5106 5106 5106 5107 5108 5110 5111 5113 5115 5118 5120 5122 5125 5127 5130 5133
5427 5419 5410 5401 5391 5382 5374 5364 5354 5344 5335 5326 5318 5310 5301 5293 5285 5278 5272 5265 5259 5253 5247 5242 5236 5231 5226 5222 5218 5214 5210 5206 5201 5197 5192 5187 5181 5176 5172 5168 5164 5161 5157 5153 5149 5145 5142 5138 5135 5132 5129 5126 5124 5123 5122 5120 5119 5118 5116 5115 5114 5113 5112 5110 5109 5108 5108 5107 5106 5105 5104 5104 5105 5106 5107 5109 5111 5113 5115 5117 5120 5122 5125 5128 5131
5415 5406 5397 5387 5377 5367 5358 5349 5341 5332 5323 5314 5305 5297 5289 5281 5273 5267 5261 5255 5249 5243 5238 5233 5228 5223 5219 5215 5210 5206 5203 5199 5194 5189 5184 5179 5174 5170 5166 5162 5158 5154 5150 5146 5142 5139 5135 5132 5129 5127 5125 5122 5121 5120 5119 5118 5116 5115 5114 5113 5112 5111 5110 5109 5108 5108 5107 5106 5105 5104 5103 5103 5103 5103 5105 5107 5108 5111 5113 5115 5118 5120 5123 5126 5130
5401 5392 5383 5373 5363 5352 5343 5335 5327 5319 5310 5301 5294 5286 5279 5271 5263 5256 5250 5245 5240 5234 5229 5225 5221 5216 5212 5208 5204 5200 5196 5192 5188 5183 5178 5173 5168 5164 5159 5155 5151 5146 5142 5139 5135 5132 5129 5127 5125 5122 5120 5119 5117 5116 5116 5115 5114 5113 5112 5111 5111 5110 5109 5108 5108 5107 5107 5106 5105 5104 5103 5103 5102 5102 5103 5104 5106 5109 5111 5114 5116 5119 5122 5125 5128
5389 5379 5369 5359 5349 5339 5330 5321 5314 5307 5298 5289 5281 5274 5269 5262 5254 5247 5241 5236 5231 5226 5222 5218 5215 5211 5206 5202 5198 5195 5191 5187 5182 5177 5173 5168 5163 5159 5154 5149 5145 5140 5136 5133 5130 5127 5125 5123 5121 5119 5117 5116 5115 5114 5113 5113 5112 5111 5111 5110 5110 5109 5109 5108 5107 5107 5106 5106 5105 5105 5104 5103 5102 5102 5102 5103 5105 5107 5109 5112 5115 5117 5120 5123 5126
5376 5366 5355 5345 5336 5327 5318 5310 5301 5294 5287 5279 5270 5262 5256 5251 5246 5240 5234 5229 5224 5220 5216 5212 5209 5206 5203 5198 5193 5189 5185 5181 5177 5173 5169 5165 5160 5156 5150 5145 5140 5136 5132 5129 5126 5124 5122 5120 5118 5116 5114 5113 5112 5112 5112 5111 5110 5110 5110 5109 5109 5109 5108 5108 5107 5107 5107 5106 5106 5105 5104 5104 5103 5102 5102 5102 5104 5106 5108 5111 5113 5116 5118 5121 5124
5363 5352 5342 5333 5324 5316 5307 5299 5290 5281 5275 5269 5262 5254 5247 5241 5236 5232 5227 5223 5218 5215 5211 5208 5204 5201 5198 5195 5190 5186 5181 5176 5172 5168 5165 5161 5157 5153 5147 5142 5137 5133 5130 5127 5124 5122 5119 5117 5115 5113 5112 5111 5110 5110 5110 5109 5109 5109 5108 5108 5108 5108 5108 5108 5107 5107 5107 5106 5106 5106 5105 5105 5104 5104 5103 5103 5103 5105 5107 5109 5112 5115 5117 5120 5123
5349 5339 5330 5321 5312 5304 5295 5287 5279 5271 5263 5256 5251 5246 5241 5234 5229 5224 5220 5216 5213 5209 5206 5203 5200 5196 5192 5189 5185 5181 5177 5172 5168 5164 5160 5156 5152 5148 5143 5138 5134 5130 5127 5124 5122 5119 5117 5115 5113 5111 5110 5109 5108 5108 5108 5108 5108 5108 5108 5108 5108 5108 5108 5108 5108 5107 5107 5107 5106 5106 5106 5106 5106 5105 5105 5104 5104 5105 5107 5109 5111 5114 5116 5119 5122
5336 5327 5319 5310 5301 5293 5285 5276 5268 5261 5254 5247 5241 5236 5232 5228 5224 5219 5215 5211 5207 5203 5200 5197 5194 5191 5187 5183 5179 5175 5171 5167 5164 5160 5156 5152 5148 5143 5139 5134 5130 5127 5124 5121 5119 5117 5115 5113 5111 5110 5108 5108 5107 5107 5107 5107 5107 5107 5107 5107 5108 5108 5108 5108 5108 5108 5108 5107 5107 5107 5107 5107 5107 5106 5106 5106 5106 5106 5107 5109 5111 5113 5116 5119 5121
5325 5316 5308 5299 5291 5283 5275 5267 5260 5253 5246 5240 5234 5228 5223 5219 5216 5213 5210 5207 5203 5199 5195 5192 5189 5186 5182 5178 5174 5170 5166 5163 5159 5156 5152 5148 5144 5140 5136 5132 5128 5124 5121 5119 5116 5114 5112 5111 5109 5108 5107 5106 5106 5106 5106 5106 5106 5107 5107 5107 5107 5108 5108 5108 5108 5108 5108 5108 5108 5108 5108 5108 5108 5108 5108 5108 5108 5108 5108 5109 5111 5113 5116 5118 5121
5315 5306 5297 5289 5281 5273 5266 5259 5252 5246 5239 5233 5228 5222 5217 5212 5208 5205 5203 5201 5198 5196 5192 5188 5184 5181 5178 5174 5170 5167 5163 5159 5156 5152 5149 5145 5141 5138 5134 5130 5126 5122 5119 5116 5114 5112 5110 5109 5108 5107 5106 5105 5105 5106 5106 5106 5106 5107 5107 5107 5108 5108 5108 5108 5109 5109 5109 5109 5109 5109 5109 5109 5109 5109 5110 5110 5110 5110 5111 5111 5112 5114 5116 5118 5121
5305 5296 5288 5280 5272 5265 5258 5251 5245 5239 5233 5228 5223 5218 5213 5209 5204 5200 5197 5194 5192 5190 5187 5184 5180 5176 5173 5170 5166 5163 5160 5156 5153 5149 5145 5142 5138 5135 5132 5128 5125 5122 5118 5115 5113 5110 5109 5108 5107 5106 5105 5105 5105 5105 5106 5106 5106 5107 5107 5108 5108 5108 5109 5109 5109 5109 5109 5110 5110 5110 5110 5111 5111 5111 5111 5112 5112 5113 5113 5114 5114 5115 5117 5119 5121
5295 5287 5280 5272 5265 5258 5252 5245 5239 5233 5227 5222 5217 5213 5209 5205 5201 5198 5194 5191 5187 5184 5181 5179 5176 5172 5169 5166 5163 5160 5157 5153 5149 5146 5142 5139 5135 5132 5130 5126 5123 5120 5117 5114 5112 5110 5108 5107 5106 5105 5105 5105 5105 5105 5106 5106 5107 5107 5107 5108 5108 5109 5109 5110 5110 5110 5111 5111 5111 5112 5112 5112 5113 5113 5113 5114 5114 5115 5116 5116 5117 5117 5119 5120 5122
5287 5279 5272 5265 5259 5252 5246 5240 5233 5227 5222 5217 5212 5208 5204 5201 5198 5195 5192 5189 5185 5182 5178 5175 5172 5169 5166 5163 5161 5158 5154 5151 5147 5143 5139 5136 5133 5130 5128 5125 5122 5119 5116 5114 5112 5110 5108 5107 5106 5105 5105 5105 5105 5106 5106 5107 5107 5107 5108 5109 5109 5110 5110 5111 5111 5111 5112 5112 5113 5113 5114 5114 5115 5115 5116 5116 5117 5117 5118 5119 5119 5120 5121 5122 5124
5279 5272 5265 5258 5252 5245 5239 5233 5228 5222 5217 5212 5208 5204 5201 5197 5194 5191 5188 5185 5182 5179 5175 5171 5168 5165 5162 5160 5157 5154 5151 5147 5144 5140 5137 5134 5131 5129 5126 5123 5121 5118 5116 5114 5112 5110 5109 5108 5107 5106 5106 5106 5106 5106 5107 5107 5108 5108 5109 5109 5110 5111 5111 5112 5112 5113 5114 5114 5115 5115 5116 5116 5117 5117 5118 5119 5119 5120 5121 5121 5122 5123 5124 5126 5127
5273 5266 5259 5253 5246 5239 5233 5227 5222 5217 5212 5208 5204 5200 5197 5194 5191 5188 5185 5182 5179 5176 5173 5169 5166 5162 5159 5157 5154 5151 5147 5144 5140 5137 5134 5131 5129 5127 5125 5123 5120 5118 5116 5115 5113 5111 5110 5109 5108 5108 5107 5107 5107 5107 5108 5108 5108 5109 5110 5110 5111 5112 5112 5113 5114 5115 5115 5116 5117 5117 5118 5119 5119 5120 5121 5121 5122 5123 5124 5125 5126 5127 5128 5129 5130
5267 5261 5254 5248 5241 5234 5228 5222 5217 5212 5208 5204 5200 5197 5194 5191 5188 5185 5182 5179 5177 5174 5170 5167 5164 5161 5158 5155 5151 5148 5144 5140 5137 5134 5132 5130 5128 5126 5124 5122 5121 5119 5117 5116 5114 5113 5111 5110 5110 5109 5109 5109 5108 5109 5109 5109 5110 5110 5111 5111 5112 5113 5114 5115 5116 5117 5118 5119 5119 5120 5121 5122 5122 5123 5124 5124 5125 5126 5127 5128 5129 5130 5131 5133 5134
5261 5254 5248 5242 5235 5229 5224 5218 5213 5209 5205 5201 5198 5194 5191 5188 5185 5182 5180 5177 5174 5171 5169 5166 5163 5160 5157 5153 5150 5146 5142 5139 5136 5133 5131 5130 5128 5126 5125 5123 5122 5120 5118 5117 5116 5114 5113 5112 5112 5111 5111 5110 5110 5110 5110 5110 5111 5111 5112 5113 5113 5114 5116 5117 5118 5119 5120 5121 5122 5123 5124 5125 5125 5126 5127 5128 5129 5130 5131 5132 5133 5134 5136 5137 5138
5255 5249 5243 5237 5230 5225 5219 5215 5210 5206 5202 5199 5195 5192 5189 5186 5184 5181 5178 5175 5173 5170 5168 5165 5162 5159 5156 5152 5149 5145 5142 5139 5137 5134 5133 5131 5129 5128 5126 5125 5123 5122 5120 5119 5118 5117 5115 5115 5114 5113 5113 5112 5112 5112 5112 5112 5113 5113 5114 5114 5115 5117 5118 5119 5120 5122 5123 5124 5125 5126 5127 5128 5129 5130 5131 5132 5133 5134 5135 5137 5138 5139 5141 5142 5143
5250 5244 5238 5232 5226 5220 5215 5211 5207 5203 5200 5197 5194 5191 5188 5185 5183 5180 5177 5174 5171 5169 5167 5165 5162 5158 5155 5152 5149 5146 5143 5141 5139 5137 5135 5133 5132 5130 5128 5127 5125 5124 5123 5121 5120 5119 5118 5117 5116 5116 5115 5115 5114 5114 5114 5115 5115 5116 5116 5117 5118 5119 5121 5122 5124 5125 5126 5128 5129 5130 5131 5132 5133 5134 5135 5136 5138 5139 5140 5142 5143 5145 5146 5147 5149
5246 5240 5234 5228 5222 5217 5212 5208 5204 5201 5198 5195 5192 5189 5187 5184 5182 5179 5176 5173 5171 5169 5167 5164 5161 5158 5155 5152 5150 5147 5145 5143 5141 5139 5137 5136 5134 5133 5131 5129 5128 5126 5125 5124 5122 5121 5120 5119 5119 5118 5117 5117 5117 5117 5117 5118 5118 5119 5120 5120 5122 5123 5124 5126 5127 5129 5130 5132 5133 5134 5136 5137 5138 5139 5140 5142 5143 5145 5146 5147 5149 5150 5151 5153 5154
5242 5236 5230 5225 5219 5215 5210 5206 5202 5199 5196 5193 5191 5188 5186 5183 5181 5178 5176 5173 5171 5169 5166 5164 5161 5159 5156 5154 5152 5150 5148 5146 5144 5142 5140 5139 5137 5135 5133 5132 5130 5129 5127 5126 5125 5124 5123 5122 5121 5121 5120 5120 5120 5121 5121 5122 5122 5123 5124 5125 5126 5127 5129 5130 5132 5133 5135 5136 5138 5139 5141 5142 5143 5145 5146 5147 5149 5150 5152 5153 5154 5156 5157 5158 5159
5238 5232 5227 5222 5217 5212 5208 5204 5201 5197 5194 5192 5190 5187 5185 5183 5180 5178 5176 5174 5171 5169 5166 5164 5162 5160 5158 5156 5154 5152 5150 5148 5146 5145 5143 5141 5139 5138 5136 5135 5133 5132 5130 5129 5128 5127 5126 5125 5125 5125 5124 5124 5125 5125 5126 5126 5127 5128 5129 5130 5131 5132 5134 5135 5137 5139 5140 5142 5143 5145 5146 5148 5149 5151 5152 5153 5155 5156 5158 5159 5160 5161 5162 5164 5165
5235 5230 5224 5220 5215 5211 5207 5203 5199 5196 5193 5191 5189 5187 5185 5183 5181 5179 5177 5174 5172 5170 5168 5166 5164 5163 5161 5159 5157 5155 5153 5151 5149 5147 5146 5144 5142 5141 5139 5138 5136 5135 5134 5133 5132 5131 5131 5130 5130 5130 5130 5130 5130 5131 5132 5132 5133 5134 5135 5136 5137 5139 5140 5142 5143 5145 5147 5148 5150 5151 5153 5154 5156 5157 5159 5160 5161 5163 5164 5165 5166 5167 5168 5169 5170
5233 5228 5223 5219 5215 5210 5206 5202 5199 5196 5193 5191 5189 5187 5186 5184 5182 5180 5178 5175 5174 5172 5170 5169 5167 5165 5163 5161 5159 5157 5156 5154 5152 5150 5149 5147 5146 5144 5143 5142 5140 5139 5139 5138 5137 5137 5136 5136 5136 5136 5136 5136 5137 5138 5138 5139 5140 5141 5142 5143 5145 5146 5147 5149 5150 5152 5153 5155 5156 5158 5160 5161 5163 5164 5165 5166 5168 5168 5169 5170 5171 5172 5173 5174 5175
5232 5227 5223 5219 5215 5210 5207 5203 5200 5197 5194 5192 5191 5189 5187 5185 5183 5181 5179 5178 5176 5175 5173 5172 5170 5168 5166 5164 5162 5160 5159 5157 5155 5154 5152 5151 5149 5148 5147 5146 5145 5145 5144 5144 5143 5143 5143 5143 5143 5143 5144 5144 5145 5145 5146 5147 5148 5149 5150 5151 5152 5154 5155 5156 5158 5159 5161 5162 5164 5165 5167 5168 5169 5171 5172 5172 5173 5174 5175 5176 5177 5177 5178 5178 5179
5231 5227 5223 5219 5215 5211 5208 5205 5202 5199 5197 5195 5193 5191 5189 5187 5185 5184 5182 5181 5180 5178 5177 5175 5173 5171 5169 5167 5166 5164 5162 5161 5159 5158 5157 5155 5154 5153 5152 5152 5151 5151 5151 5151 5150 5150 5151 5151 5151 5152 5152 5152 5153 5153 5154 5155 5156 5157 5158 5159 5160 5161 5163 5164 5165 5167 5168 5170 5171 5172 5173 5175 5176 5177 5177 5178 5179 5179 5180 5180 5181 5181 5181 5181 5182
5232 5228 5224 5220 5216 5213 5210 5207 5204 5202 5200 5198 5196 5194 5192 5190 5189 5187 5186 5185 5183 5182 5180 5178 5176 5175 5173 5172 5170 5169 5167 5166 5164 5163 5162 5161 5160 5160 5159 5159 5158 5158 5158 5158 5158 5159 5159 5159 5159 5160 5160 5160 5161 5161 5162 5163 5164 5165 5166 5167 5168 5169 5171 5172 5173 5175 5176 5177 5178 5179 5180 5181 5181 5182 5182 5183 5183 5184 5184 5184 5185 5185 5185 5185 5185
5233 5229 5225 5222 5219 5216 5213 5210 5208 5205 5203 5201 5199 5198 5196 5194 5193 5192 5190 5189 5187 5185 5184 5182 5181 5179 5178 5177 5175 5174 5173 5172 5171 5170 5169 5168 5168 5167 5167 5167 5167 5167 5166 5167 5167 5167 5167 5167 5168 5168 5168 5169 5169 5170 5170 5171 5172 5173 5174 5175 5176 5178 5179 5180 5181 5182 5183 5183 5184 5185 5185 5186 5186 5187 5187 5188 5188 5188 5188 5188 5188 5188 5188 5188 5187